Time,TemperatureF,DewpointF,PressureIn,WindDirection,WindDirectionDegrees,WindSpeedMPH,WindSpeedGustMPH,Humidity,HourlyPrecipIn,Conditions,Clouds,dailyrainin,SoftwareType,DateUTC
2013-06-08 00:09:00,63.0,11.3,29.82,North,-999,0.0,5.4,13,0.00,,,-99.99,FreeWX 2.04,2013-06-08 06:09:00,
2013-06-08 00:19:00,61.3,11.8,29.82,North,-999,0.0,5.8,14,0.00,,,-99.99,FreeWX 2.04,2013-06-08 06:19:00,
2013-06-08 00:29:00,63.3,11.7,29.82,SW,227,3.0,9.2,13,0.00,,,-99.99,FreeWX 2.04,2013-06-08 06:29:00,
2013-06-08 00:39:00,62.4,10.9,29.85,NW,312,2.0,6.9,13,0.00,,,-99.99,FreeWX 2.04,2013-06-08 06:39:00,
2013-06-08 00:49:00,59.5,10.4,29.85,NNW,329,3.0,6.9,14,0.00,,,-99.99,FreeWX 2.04,2013-06-08 06:49:00,
2013-06-08 00:59:00,58.8,9.7,29.85,North,-999,0.0,6.3,14,0.00,,,-99.99,FreeWX 2.04,2013-06-08 06:59:00,
2013-06-08 01:09:00,57.9,13.5,29.85,North,-999,0.0,3.6,17,0.00,,,-99.99,FreeWX 2.04,2013-06-08 07:09:00,
2013-06-08 01:20:00,55.4,20.1,29.85,ESE,107,1.0,6.3,25,0.00,,,-99.99,FreeWX 2.04,2013-06-08 07:20:00,
2013-06-08 01:30:00,54.3,21.9,29.85,ESE,115,5.0,8.3,28,0.00,,,-99.99,FreeWX 2.04,2013-06-08 07:30:00,
2013-06-08 01:40:00,54.0,21.6,29.85,ESE,117,5.0,8.7,28,0.00,,,-99.99,FreeWX 2.04,2013-06-08 07:40:00,
2013-06-08 01:50:00,54.1,21.7,29.85,ESE,117,6.0,8.7,28,0.00,,,-99.99,FreeWX 2.04,2013-06-08 07:50:00,
2013-06-08 02:00:00,53.1,21.7,29.85,ESE,110,6.0,10.5,29,0.00,,,-99.99,FreeWX 2.04,2013-06-08 08:00:00,
2013-06-08 02:10:00,52.7,23.0,29.85,ESE,113,5.0,9.2,31,0.00,,,-99.99,FreeWX 2.04,2013-06-08 08:10:00,
2013-06-08 02:20:00,52.3,22.6,29.85,ESE,111,6.0,10.1,31,0.00,,,-99.99,FreeWX 2.04,2013-06-08 08:20:00,
2013-06-08 02:30:00,51.8,23.5,29.88,ESE,121,6.0,9.2,33,0.00,,,-99.99,FreeWX 2.04,2013-06-08 08:30:00,
2013-06-08 02:40:00,50.2,25.0,29.88,East,101,4.0,8.3,37,0.00,,,-99.99,FreeWX 2.04,2013-06-08 08:40:00,
2013-06-08 02:50:00,50.2,25.0,29.88,ESE,122,4.0,7.8,37,0.00,,,-99.99,FreeWX 2.04,2013-06-08 08:50:00,
2013-06-08 03:00:00,48.9,24.4,29.88,ESE,115,5.0,6.9,38,0.00,,,-99.99,FreeWX 2.04,2013-06-08 09:00:00,
2013-06-08 03:10:00,49.3,25.3,29.88,ESE,107,5.0,8.3,39,0.00,,,-99.99,FreeWX 2.04,2013-06-08 09:10:00,
2013-06-08 03:20:00,48.9,25.0,29.88,ESE,117,5.0,7.8,39,0.00,,,-99.99,FreeWX 2.04,2013-06-08 09:20:00,
2013-06-08 03:30:00,48.4,25.2,29.88,SE,124,5.0,7.8,40,0.00,,,-99.99,FreeWX 2.04,2013-06-08 09:30:00,
2013-06-08 03:40:00,47.5,25.0,29.91,SE,129,5.0,11.0,41,0.00,,,-99.99,FreeWX 2.04,2013-06-08 09:40:00,
2013-06-08 03:50:00,46.9,25.7,29.91,ESE,119,5.0,8.3,43,0.00,,,-99.99,FreeWX 2.04,2013-06-08 09:50:00,
2013-06-08 04:00:00,46.8,26.1,29.91,SE,127,5.0,7.8,44,0.00,,,-99.99,FreeWX 2.04,2013-06-08 10:00:00,
2013-06-08 04:10:00,46.4,26.2,29.91,ESE,113,5.0,7.4,45,0.00,,,-99.99,FreeWX 2.04,2013-06-08 10:10:00,
2013-06-08 04:20:00,46.4,26.2,29.91,SE,126,6.0,9.6,45,0.00,,,-99.99,FreeWX 2.04,2013-06-08 10:20:00,
2013-06-08 04:30:00,46.9,26.2,29.91,ESE,116,6.0,9.2,44,0.00,,,-99.99,FreeWX 2.04,2013-06-08 10:30:00,
2013-06-08 04:40:00,46.6,25.3,29.91,ESE,118,5.0,6.9,43,0.00,,,-99.99,FreeWX 2.04,2013-06-08 10:40:00,
2013-06-08 04:50:00,45.1,26.1,29.91,ESE,122,6.0,9.2,47,0.00,,,-99.99,FreeWX 2.04,2013-06-08 10:50:00,
2013-06-08 05:00:00,44.8,26.2,29.91,ESE,120,5.0,7.8,48,0.00,,,-99.99,FreeWX 2.04,2013-06-08 11:00:00,
2013-06-08 05:10:00,44.4,26.1,29.91,ESE,123,4.0,5.8,48,0.00,,,-99.99,FreeWX 2.04,2013-06-08 11:10:00,
2013-06-08 05:20:00,44.4,26.1,29.94,ESE,123,4.0,6.9,48,0.00,,,-99.99,FreeWX 2.04,2013-06-08 11:20:00,
2013-06-08 05:30:00,43.3,25.5,29.94,ESE,115,3.0,5.8,49,0.00,,,-99.99,FreeWX 2.04,2013-06-08 11:30:00,
2013-06-08 05:40:00,42.8,25.5,29.94,SE,126,2.0,6.3,50,0.00,,,-99.99,FreeWX 2.04,2013-06-08 11:40:00,
2013-06-08 05:50:00,42.1,25.3,29.94,North,-999,0.0,0.0,51,0.00,,,-99.99,FreeWX 2.04,2013-06-08 11:50:00,
2013-06-08 06:00:00,41.2,26.2,29.94,North,-999,0.0,2.7,55,0.00,,,-99.99,FreeWX 2.04,2013-06-08 12:00:00,
2013-06-08 06:10:00,41.0,26.6,29.94,North,-999,0.0,0.0,56,0.00,,,-99.99,FreeWX 2.04,2013-06-08 12:10:00,
2013-06-08 06:20:00,40.3,26.2,29.94,North,-999,0.0,0.0,57,0.00,,,-99.99,FreeWX 2.04,2013-06-08 12:20:00,
2013-06-08 06:30:00,40.6,27.5,29.94,North,-999,0.0,0.0,59,0.00,,,-99.99,FreeWX 2.04,2013-06-08 12:30:00,
2013-06-08 06:40:00,41.7,28.0,29.94,North,-999,0.0,0.0,58,0.00,,,-99.99,FreeWX 2.04,2013-06-08 12:40:00,
2013-06-08 06:50:00,42.8,28.2,29.94,North,-999,0.0,0.0,56,0.00,,,-99.99,FreeWX 2.04,2013-06-08 12:50:00,
2013-06-08 07:00:00,43.9,27.9,29.94,North,-999,0.0,0.0,53,0.00,,,-99.99,FreeWX 2.04,2013-06-08 13:00:00,
2013-06-08 07:10:00,45.7,30.0,29.94,North,-999,0.0,0.0,54,0.00,,,-99.99,FreeWX 2.04,2013-06-08 13:10:00,
2013-06-08 07:20:00,47.8,27.5,29.94,North,-999,0.0,0.0,45,0.00,,,-99.99,FreeWX 2.04,2013-06-08 13:20:00,
2013-06-08 07:30:00,50.0,27.3,29.94,North,-999,0.0,0.0,41,0.00,,,-99.99,FreeWX 2.04,2013-06-08 13:30:00,
2013-06-08 07:40:00,51.6,26.8,29.97,North,-999,0.0,0.0,38,0.00,,,-99.99,FreeWX 2.04,2013-06-08 13:40:00,
2013-06-08 07:50:00,53.2,27.7,29.97,North,-999,0.0,0.0,37,0.00,,,-99.99,FreeWX 2.04,2013-06-08 13:50:00,
2013-06-08 08:00:00,54.7,27.0,29.97,North,359,3.0,6.9,34,0.00,,,-99.99,FreeWX 2.04,2013-06-08 14:00:00,
2013-06-08 08:10:00,55.9,21.6,29.97,North,357,4.0,6.7,26,0.00,,,-99.99,FreeWX 2.04,2013-06-08 14:10:00,
2013-06-08 08:20:00,57.2,22.6,29.97,NNW,346,3.0,6.9,26,0.00,,,-99.99,FreeWX 2.04,2013-06-08 14:20:00,
2013-06-08 08:30:00,58.1,23.4,29.97,North,349,3.0,6.3,26,0.00,,,-99.99,FreeWX 2.04,2013-06-08 14:30:00,
2013-06-08 08:40:00,58.6,21.9,29.97,NNW,345,2.0,6.3,24,0.00,,,-99.99,FreeWX 2.04,2013-06-08 14:40:00,
2013-06-08 08:50:00,59.0,23.2,29.97,NNW,340,4.0,6.7,25,0.00,,,-99.99,FreeWX 2.04,2013-06-08 14:50:00,
2013-06-08 09:00:00,59.0,22.3,29.97,NNW,339,4.0,7.4,24,0.00,,,-99.99,FreeWX 2.04,2013-06-08 15:00:00,
2013-06-08 09:10:00,59.7,22.8,29.97,NNW,335,4.0,7.4,24,0.00,,,-99.99,FreeWX 2.04,2013-06-08 15:10:00,
2013-06-08 09:20:00,59.5,20.7,29.97,North,349,5.0,7.4,22,0.00,,,-99.99,FreeWX 2.04,2013-06-08 15:20:00,
2013-06-08 09:30:00,60.6,23.7,29.97,NNW,336,5.0,10.1,24,0.00,,,-99.99,FreeWX 2.04,2013-06-08 15:30:00,
2013-06-08 09:40:00,60.8,23.7,29.97,NNW,330,6.0,9.6,24,0.00,,,-99.99,FreeWX 2.04,2013-06-08 15:40:00,
2013-06-08 09:50:00,60.6,18.1,29.97,NNW,340,5.0,8.7,19,0.00,,,-99.99,FreeWX 2.04,2013-06-08 15:50:00,
2013-06-08 10:00:00,61.7,19.0,29.97,NW,325,6.0,11.2,19,0.00,,,-99.99,FreeWX 2.04,2013-06-08 16:00:00,
2013-06-08 10:10:00,61.3,18.7,29.97,NW,326,6.0,11.0,19,0.00,,,-99.99,FreeWX 2.04,2013-06-08 16:10:00,
2013-06-08 10:20:00,61.9,18.0,29.97,NW,315,5.0,9.6,18,0.00,,,-99.99,FreeWX 2.04,2013-06-08 16:20:00,
2013-06-08 10:30:00,63.0,18.9,29.97,NNE,21,4.0,9.6,18,0.00,,,-99.99,FreeWX 2.04,2013-06-08 16:30:00,
2013-06-08 10:40:00,62.6,18.5,29.97,North,349,6.0,11.0,18,0.00,,,-99.99,FreeWX 2.04,2013-06-08 16:40:00,
2013-06-08 10:50:00,62.6,15.8,29.97,NNW,348,6.0,11.2,16,0.00,,,-99.99,FreeWX 2.04,2013-06-08 16:50:00,
2013-06-08 11:00:00,63.3,16.3,29.97,NNW,347,5.0,10.1,16,0.00,,,-99.99,FreeWX 2.04,2013-06-08 17:00:00,
2013-06-08 11:10:00,64.4,15.8,29.97,NNW,343,5.0,11.2,15,0.00,,,-99.99,FreeWX 2.04,2013-06-08 17:10:00,
2013-06-08 11:20:00,64.2,15.6,29.97,NNW,332,5.0,10.5,15,0.00,,,-99.99,FreeWX 2.04,2013-06-08 17:20:00,
2013-06-08 11:30:00,64.8,16.0,29.97,NNW,329,5.0,10.5,15,0.00,,,-99.99,FreeWX 2.04,2013-06-08 17:30:00,
2013-06-08 11:40:00,64.4,19.9,29.97,North,355,5.0,10.1,18,0.00,,,-99.99,FreeWX 2.04,2013-06-08 17:40:00,
2013-06-08 11:50:00,65.1,16.3,29.97,NNW,330,6.0,12.5,15,0.00,,,-99.99,FreeWX 2.04,2013-06-08 17:50:00,
2013-06-08 12:00:00,64.9,12.9,29.97,NNW,338,7.0,13.4,13,0.00,,,-99.99,FreeWX 2.04,2013-06-08 18:00:00,
2013-06-08 12:11:00,65.7,11.7,29.97,NW,313,6.0,12.1,12,0.00,,,-99.99,FreeWX 2.04,2013-06-08 18:11:00,
2013-06-08 12:21:00,66.0,17.1,29.97,NW,310,5.0,11.6,15,0.00,,,-99.99,FreeWX 2.04,2013-06-08 18:21:00,
2013-06-08 12:31:00,66.9,17.8,29.97,NW,309,6.0,10.5,15,0.00,,,-99.99,FreeWX 2.04,2013-06-08 18:31:00,
2013-06-08 12:41:00,66.2,12.0,29.97,NNW,338,7.0,13.0,12,0.00,,,-99.99,FreeWX 2.04,2013-06-08 18:41:00,
2013-06-08 12:51:00,67.1,18.0,29.97,NNW,340,4.0,10.5,15,0.00,,,-99.99,FreeWX 2.04,2013-06-08 18:51:00,
2013-06-08 13:01:00,67.5,13.1,29.97,NW,311,6.0,10.1,12,0.00,,,-99.99,FreeWX 2.04,2013-06-08 19:01:00,
2013-06-08 13:11:00,66.9,12.7,29.97,NNW,333,6.0,11.2,12,0.00,,,-99.99,FreeWX 2.04,2013-06-08 19:11:00,
2013-06-08 13:21:00,67.6,13.3,29.97,NW,314,6.0,11.6,12,0.00,,,-99.99,FreeWX 2.04,2013-06-08 19:21:00,
2013-06-08 13:31:00,67.3,12.9,29.97,NNW,339,8.0,13.9,12,0.00,,,-99.99,FreeWX 2.04,2013-06-08 19:31:00,
2013-06-08 13:41:00,68.0,13.5,29.97,NNW,340,6.0,15.4,12,0.00,,,-99.99,FreeWX 2.04,2013-06-08 19:41:00,
2013-06-08 13:51:00,67.3,12.9,29.97,NW,323,10.0,15.2,12,0.00,,,-99.99,FreeWX 2.04,2013-06-08 19:51:00,
2013-06-08 14:01:00,68.7,14.0,29.97,NW,321,6.0,11.0,12,0.00,,,-99.99,FreeWX 2.04,2013-06-08 20:01:00,
2013-06-08 14:11:00,68.7,14.0,29.97,NNW,328,8.0,12.5,12,0.00,,,-99.99,FreeWX 2.04,2013-06-08 20:11:00,
2013-06-08 14:21:00,68.0,13.5,29.97,NW,316,8.0,15.9,12,0.00,,,-99.99,FreeWX 2.04,2013-06-08 20:21:00,
2013-06-08 14:31:00,67.8,13.5,29.97,NNW,331,10.0,16.3,12,0.00,,,-99.99,FreeWX 2.04,2013-06-08 20:31:00,
2013-06-08 14:41:00,68.4,13.8,29.97,NNW,334,9.0,15.2,12,0.00,,,-99.99,FreeWX 2.04,2013-06-08 20:41:00,
2013-06-08 14:51:00,69.1,14.4,29.97,NW,317,7.0,13.4,12,0.00,,,-99.99,FreeWX 2.04,2013-06-08 20:51:00,
2013-06-08 15:01:00,68.9,14.2,29.97,NNW,341,6.0,14.8,12,0.00,,,-99.99,FreeWX 2.04,2013-06-08 21:01:00,
2013-06-08 15:11:00,69.4,14.7,29.97,NNW,333,8.0,14.3,12,0.00,,,-99.99,FreeWX 2.04,2013-06-08 21:11:00,
2013-06-08 15:21:00,70.0,15.1,29.97,NNW,331,7.0,11.6,12,0.00,,,-99.99,FreeWX 2.04,2013-06-08 21:21:00,
2013-06-08 15:31:00,72.1,14.7,29.97,West,272,4.0,8.3,11,0.00,,,-99.99,FreeWX 2.04,2013-06-08 21:31:00,
2013-06-08 15:41:00,72.3,14.9,29.97,WNW,283,3.0,8.3,11,0.00,,,-99.99,FreeWX 2.04,2013-06-08 21:41:00,
2013-06-08 15:51:00,71.4,14.2,29.94,NNW,339,3.0,8.7,11,0.00,,,-99.99,FreeWX 2.04,2013-06-08 21:51:00,
2013-06-08 16:01:00,70.9,13.8,29.94,North,351,4.0,10.5,11,0.00,,,-99.99,FreeWX 2.04,2013-06-08 22:01:00,
2013-06-08 16:11:00,71.6,14.4,29.94,WNW,301,4.0,11.6,11,0.00,,,-99.99,FreeWX 2.04,2013-06-08 22:11:00,
2013-06-08 16:21:00,73.4,15.6,29.94,SW,233,3.0,9.2,11,0.00,,,-99.99,FreeWX 2.04,2013-06-08 22:21:00,
2013-06-08 16:31:00,73.8,16.0,29.94,SW,231,5.0,11.2,11,0.00,,,-99.99,FreeWX 2.04,2013-06-08 22:31:00,
2013-06-08 16:41:00,74.5,-99.9,29.94,SW,231,2.0,8.3,-999,0.00,,,-99.99,FreeWX 2.04,2013-06-08 22:41:00,
2013-06-08 16:51:00,73.0,15.4,29.94,WSW,256,4.0,11.0,11,0.00,,,-99.99,FreeWX 2.04,2013-06-08 22:51:00,
2013-06-08 17:01:00,74.3,16.3,29.94,SW,231,3.0,9.2,11,0.00,,,-99.99,FreeWX 2.04,2013-06-08 23:01:00,
2013-06-08 17:11:00,73.0,15.4,29.94,NNW,337,2.0,8.3,11,0.00,,,-99.99,FreeWX 2.04,2013-06-08 23:11:00,
2013-06-08 17:21:00,72.7,15.1,29.94,West,280,5.0,11.0,11,0.00,,,-99.99,FreeWX 2.04,2013-06-08 23:21:00,
2013-06-08 17:31:00,73.4,15.6,29.94,West,266,4.0,10.1,11,0.00,,,-99.99,FreeWX 2.04,2013-06-08 23:31:00,
2013-06-08 17:41:00,74.1,16.3,29.94,WSW,248,3.0,9.6,11,0.00,,,-99.99,FreeWX 2.04,2013-06-08 23:41:00,
2013-06-08 17:51:00,73.9,16.2,29.94,West,260,4.0,11.0,11,0.00,,,-99.99,FreeWX 2.04,2013-06-08 23:51:00,
2013-06-08 18:01:00,74.3,-99.9,29.94,SW,235,3.0,8.7,-999,0.00,,,-99.99,FreeWX 2.04,2013-06-09 00:01:00,
2013-06-08 18:12:00,74.1,16.3,29.94,WSW,239,4.0,11.0,11,0.00,,,-99.99,FreeWX 2.04,2013-06-09 00:12:00,
2013-06-08 18:22:00,73.8,16.0,29.94,WSW,248,4.0,9.2,11,0.00,,,-99.99,FreeWX 2.04,2013-06-09 00:22:00,
2013-06-08 18:32:00,73.4,15.6,29.94,WSW,251,4.0,11.0,11,0.00,,,-99.99,FreeWX 2.04,2013-06-09 00:32:00,
2013-06-08 18:42:00,73.0,15.4,29.94,WSW,246,4.0,10.1,11,0.00,,,-99.99,FreeWX 2.04,2013-06-09 00:42:00,
2013-06-08 18:52:00,73.2,15.6,29.94,West,264,2.0,7.4,11,0.00,,,-99.99,FreeWX 2.04,2013-06-09 00:52:00,
2013-06-08 19:02:00,73.0,15.4,29.94,WSW,242,2.0,7.4,11,0.00,,,-99.99,FreeWX 2.04,2013-06-09 01:02:00,
2013-06-08 19:12:00,72.5,15.1,29.94,West,259,3.0,7.8,11,0.00,,,-99.99,FreeWX 2.04,2013-06-09 01:12:00,
2013-06-08 19:22:00,72.3,14.9,29.94,WSW,239,2.0,6.7,11,0.00,,,-99.99,FreeWX 2.04,2013-06-09 01:22:00,
2013-06-08 19:32:00,72.0,14.5,29.94,WSW,258,2.0,6.9,11,0.00,,,-99.99,FreeWX 2.04,2013-06-09 01:32:00,
2013-06-08 19:42:00,71.6,14.4,29.94,West,271,2.0,9.2,11,0.00,,,-99.99,FreeWX 2.04,2013-06-09 01:42:00,
2013-06-08 19:52:00,70.5,15.4,29.94,WNW,287,1.0,6.7,12,0.00,,,-99.99,FreeWX 2.04,2013-06-09 01:52:00,
2013-06-08 20:02:00,69.4,14.7,29.94,NNW,336,1.0,4.9,12,0.00,,,-99.99,FreeWX 2.04,2013-06-09 02:02:00,
2013-06-08 20:12:00,68.7,14.0,29.94,North,-999,0.0,4.9,12,0.00,,,-99.99,FreeWX 2.04,2013-06-09 02:12:00,
2013-06-08 20:22:00,67.6,13.3,29.94,NNW,327,1.0,4.9,12,0.00,,,-99.99,FreeWX 2.04,2013-06-09 02:22:00,
2013-06-08 20:32:00,65.7,11.7,29.94,North,-999,0.0,3.1,12,0.00,,,-99.99,FreeWX 2.04,2013-06-09 02:32:00,
2013-06-08 20:42:00,63.0,16.2,29.94,North,-999,0.0,3.6,16,0.00,,,-99.99,FreeWX 2.04,2013-06-09 02:42:00,
2013-06-08 20:52:00,61.0,20.8,29.94,SE,125,1.0,5.4,21,0.00,,,-99.99,FreeWX 2.04,2013-06-09 02:52:00,
2013-06-08 21:02:00,59.7,22.8,29.94,ESE,118,4.0,7.8,24,0.00,,,-99.99,FreeWX 2.04,2013-06-09 03:02:00,
2013-06-08 21:12:00,57.7,24.1,29.94,ESE,113,4.0,6.9,27,0.00,,,-99.99,FreeWX 2.04,2013-06-09 03:12:00,
2013-06-08 21:22:00,58.1,23.4,29.94,ESE,111,5.0,7.8,26,0.00,,,-99.99,FreeWX 2.04,2013-06-09 03:22:00,
2013-06-08 21:32:00,58.1,22.5,29.94,ESE,115,6.0,10.5,25,0.00,,,-99.99,FreeWX 2.04,2013-06-09 03:32:00,
2013-06-08 21:42:00,57.2,22.6,29.94,East,100,5.0,8.7,26,0.00,,,-99.99,FreeWX 2.04,2013-06-09 03:42:00,
2013-06-08 21:52:00,57.2,22.6,29.97,ESE,116,4.0,7.8,26,0.00,,,-99.99,FreeWX 2.04,2013-06-09 03:52:00,
2013-06-08 22:02:00,57.6,22.1,29.97,ESE,118,6.0,10.1,25,0.00,,,-99.99,FreeWX 2.04,2013-06-09 04:02:00,
2013-06-08 22:12:00,55.9,22.5,29.97,ESE,103,5.0,9.6,27,0.00,,,-99.99,FreeWX 2.04,2013-06-09 04:12:00,
2013-06-08 22:22:00,55.9,22.5,29.97,ESE,111,4.0,10.5,27,0.00,,,-99.99,FreeWX 2.04,2013-06-09 04:22:00,
2013-06-08 22:32:00,54.1,22.6,29.97,ESE,107,3.0,10.1,29,0.00,,,-99.99,FreeWX 2.04,2013-06-09 04:32:00,
2013-06-08 22:42:00,53.6,23.0,29.97,East,91,3.0,6.9,30,0.00,,,-99.99,FreeWX 2.04,2013-06-09 04:42:00,
2013-06-08 22:52:00,53.8,23.0,29.97,East,96,4.0,7.4,30,0.00,,,-99.99,FreeWX 2.04,2013-06-09 04:52:00,
2013-06-08 23:02:00,54.5,21.2,29.97,ESE,102,5.0,10.1,27,0.00,,,-99.99,FreeWX 2.04,2013-06-09 05:02:00,
2013-06-08 23:12:00,54.1,20.8,29.97,ESE,104,5.0,8.7,27,0.00,,,-99.99,FreeWX 2.04,2013-06-09 05:12:00,
2013-06-08 23:22:00,52.7,22.1,29.97,East,91,4.0,6.9,30,0.00,,,-99.99,FreeWX 2.04,2013-06-09 05:22:00,
2013-06-08 23:32:00,53.1,20.8,29.97,ESE,104,5.0,11.0,28,0.00,,,-99.99,FreeWX 2.04,2013-06-09 05:32:00,
2013-06-08 23:42:00,52.9,20.7,29.97,East,99,4.0,9.2,28,0.00,,,-99.99,FreeWX 2.04,2013-06-09 05:42:00,
2013-06-08 23:52:00,52.5,20.3,29.97,East,97,5.0,8.7,28,0.00,,,-99.99,FreeWX 2.04,2013-06-09 05:52:00,